Weather in Stretenka

Russia / Primorsky Krai     45°49′41″N   134°03′03″E
temp.,
°C
wind,
m/s
gust,
m/s
humid.,
%
clouds,
%
prec.,
mm/h
press.,
hPa
HPBL,
m
18 may, tue
tue1801:00+12s23570 0.0 100535
04:00+11sse22580 0.0 100530
07:00+13se12590 0.0 100656
10:00+22sw46330 0.0 1006747
13:00+25sw45300 0.0 10051296
16:00+27sw44270 0.0 10042090
19:00+23ssw25440 0.0 1004128
22:00+16ssw39600 0.0 1005178
19 may, wed
wed1901:00+17ssw513450 0.0 1005452
04:00+15ssw413430 0.0 1004407
07:00+16ssw414480 0.0 1005417
10:00+22sw583566 0.0 1005883
13:00+25wsw573684 0.0 10051252
16:00+25wsw58385 0.0 10041368
19:00+23wsw36520 0.0 1004466
22:00+16ssw368018 0.0 1006123
20 may, thu
thu2001:00+13ssw24910 0.6 100777
04:00+13sse23920 0.8 100742
07:00+15sse16825 0.0 1007160
10:00+24sw58413 0.0 1007919
13:00+28wsw69355 0.0 10061469
16:00+28wsw59375 0.0 10051458
19:00+26sw375075 0.0 1005488
22:00+22sw6154772 0.0 1007501
21 may, fri
fri2101:00+20sw51449100 0.0 1007460
04:00+16ssw385797 0.2 1007213
07:00+17s2659100 0.0 1008214
10:00+23sw2337100 0.0 1007649
13:00+28nw2132100 0.0 10051156
16:00+27n3341100 0.0 1002934
19:00+23wsw1164100 0.0 100118
22:00+16e31083100 0.6 1004273
22 may, sat
sat2201:00+15ene1290100 0.3 100338
04:00+14ene1295100 0.6 100337
07:00+16e1391100 0.0 1004102
10:00+21ene2457100 0.0 1005563
13:00+26ne2430100 0.0 10041916
16:00+26n3232100 0.0 10032002
19:00+24nw2352100 0.0 1004107
22:00+18ssw22620 0.0 100621